DMSP 5D-2 F11 DEB, 29071

Orbit data source: Space-Track

DMSP 5D-2 F11 DEB, 29071 is space debris in SSO originally from a launch on Thu, 28 Nov 1991 UTC launched from the Air Force Western Test Range (AFWTR). Debris objects in space refer to the collection of defunct objects orbiting the Earth. Examples of debris include non-operational satellites, rocket bodies, and fragments generated from explosions, collisions, or faulty payload assembly.

Loading next visibility...
Identifier
29071, 1991-082BS
Orbit
SSO
Country
Flag of USUS
Related business
Manufacturer
Unknown
Mission
Spacecraft
Bus & Motor
Unknown
Mass
Unknown
Launch date (UTC)
1991-11-28 (35 years ago)
Launch vehicle
Unknown
Launch site
Air Force Western Test Range (AFWTR)
Object type
Payload
Rocket body
Debris
Shape & HBR
Unknown shape, 0.1 m
Radar Cross Section
Medium (>0.1 m² and <1 m²)

Expand to show TLE details & history
Last TLE update: 1 day ago

TLE from 1 day ago
0 DMSP 5D-2 F11 DEB
1 29071U 91082BS  26263.17567825  .00002719  00000-0  88182-3 0  9998
2 29071  98.9408 340.1515 0069653 267.0291  92.2922 14.38436481145316
Epoch: 2026-09-20T04:12Z
TLE epoch observation values (Epoch: 2026-09-20T04:12:58.600Z)
Latitude
-0.00009°
Longitude
-82.16628°
Altitude
768.937 km
Speed
7.468 km/s
True Right ascension
22h 40m 36s
True Declination
0° 00' 00"
Sunlit
Object was in full shadow at epoch
Visualization orbit readout
Latitude
Unknown
Longitude
Unknown
Altitude
Unknown
Speed
Unknown
Apparent Right ascension
Unknown
Apparent Declination
Unknown
Sunlit
N/A
Visualization observer readout
Local Sidereal Time
04:58:39
Azimuth
Unknown
Elevation
Unknown
Doppler factor
Unknown
Orbital elements
Apogee altitude
810.539 km
Perigee altitude
711.089 km
Semi-major axis
7,138.951 km
Eccentricity
0.00697
Inclination
98.9408°
RAAN
340.1515°
Arg. of periapsis
267.0291°
True anomaly
93.08942°
Mean anomaly
92.2922°
Eccentric anomaly
92.69084°
Mean motion
3.59825 °/min
Orbital period
100.05 mins
BSTAR
0.00088182
Loading maneuver chart data...
Computing Atmospheric mass density...

Documentation

Showing up to 5 results
|